Time,TemperatureF,DewpointF,PressureIn,WindDirection,WindDirectionDegrees,WindSpeedMPH,WindSpeedGustMPH,Humidity,HourlyPrecipIn,Conditions,Clouds,dailyrainin,SoftwareType,DateUTC
2013-12-11 00:22:00,20.0,17.0,-100.00,North,0,6.0,11.0,85,-99.99,,,-99.99,,2013-12-11 05:22:00,
2013-12-11 00:53:00,20.0,17.0,-100.00,NNE,15,6.0,11.0,85,-99.99,,,-99.99,,2013-12-11 05:53:00,
2013-12-11 01:22:00,20.0,17.0,-100.00,North,0,6.0,9.0,85,-99.99,,,-99.99,,2013-12-11 06:22:00,
2013-12-11 01:52:00,20.0,16.0,-100.00,North,0,5.0,7.0,86,-99.99,,,-99.99,,2013-12-11 06:52:00,
2013-12-11 02:22:00,19.0,17.0,-100.00,North,10,5.0,8.0,87,-99.99,,,-99.99,,2013-12-11 07:22:00,
2013-12-11 02:52:00,19.0,17.0,-100.00,North,10,6.0,9.0,88,-99.99,,,-99.99,,2013-12-11 07:52:00,
2013-12-11 03:22:00,19.0,17.0,-100.00,North,0,6.0,13.0,88,-99.99,,,-99.99,,2013-12-11 08:22:00,
2013-12-11 03:52:00,19.0,16.0,-100.00,North,0,6.0,11.0,88,-99.99,,,-99.99,,2013-12-11 08:52:00,
2013-12-11 04:22:00,19.0,16.0,-100.00,North,0,7.0,12.0,88,-99.99,,,-99.99,,2013-12-11 09:22:00,
2013-12-11 04:54:00,19.0,16.0,-100.00,North,0,6.0,12.0,89,-99.99,,,-99.99,,2013-12-11 09:54:00,
2013-12-11 05:23:00,18.0,15.0,-100.00,North,10,6.0,11.0,88,-99.99,,,-99.99,,2013-12-11 10:23:00,
2013-12-11 05:52:00,18.0,15.0,-100.00,North,5,6.0,11.0,87,-99.99,,,-99.99,,2013-12-11 10:52:00,
2013-12-11 06:22:00,18.0,15.0,-100.00,North,5,5.0,9.0,87,-99.99,,,-99.99,,2013-12-11 11:22:00,
2013-12-11 06:52:00,18.0,15.0,-100.00,North,0,4.0,8.0,87,-99.99,,,-99.99,,2013-12-11 11:52:00,
2013-12-11 07:22:00,18.0,15.0,-100.00,North,5,4.0,9.0,87,-99.99,,,-99.99,,2013-12-11 12:22:00,
2013-12-11 07:52:00,18.0,15.0,-100.00,North,0,5.0,8.0,87,-99.99,,,-99.99,,2013-12-11 12:52:00,
2013-12-11 08:22:00,18.0,15.0,-100.00,North,0,6.0,11.0,86,-99.99,,,-99.99,,2013-12-11 13:22:00,
2013-12-11 08:52:00,19.0,15.0,-100.00,North,0,4.0,11.0,85,-99.99,,,-99.99,,2013-12-11 13:52:00,
2013-12-11 09:22:00,19.0,15.0,-100.00,North,0,6.0,11.0,83,-99.99,,,-99.99,,2013-12-11 14:22:00,
2013-12-11 09:42:00,20.0,15.0,-100.00,North,5,5.0,12.0,81,-99.99,,,-99.99,,2013-12-11 14:42:00,
2013-12-11 09:52:00,20.0,15.0,-100.00,North,0,6.0,14.0,79,-99.99,,,-99.99,,2013-12-11 14:52:00,
2013-12-11 10:22:00,21.0,16.0,-100.00,North,350,6.0,11.0,79,-99.99,,,-99.99,,2013-12-11 15:22:00,
2013-12-11 10:53:00,21.0,18.0,-100.00,North,0,6.0,12.0,87,-99.99,,,-99.99,,2013-12-11 15:53:00,
2013-12-11 11:23:00,21.0,19.0,-100.00,North,0,6.0,12.0,91,-99.99,,,-99.99,,2013-12-11 16:23:00,
2013-12-11 11:53:00,22.0,20.0,-100.00,North,0,6.0,14.0,92,-99.99,,,-99.99,,2013-12-11 16:53:00,
2013-12-11 12:22:00,23.0,22.0,-100.00,North,0,6.0,12.0,94,-99.99,,,-99.99,,2013-12-11 17:22:00,
2013-12-11 12:52:00,24.0,23.0,-100.00,NNE,15,6.0,9.0,95,-99.99,,,-99.99,,2013-12-11 17:52:00,
2013-12-11 13:22:00,25.0,24.0,-100.00,NNE,15,6.0,12.0,96,-99.99,,,-99.99,,2013-12-11 18:22:00,
2013-12-11 13:52:00,26.0,25.0,-100.00,North,0,5.0,13.0,96,-99.99,,,-99.99,,2013-12-11 18:52:00,
2013-12-11 14:22:00,25.0,25.0,-100.00,NNE,30,5.0,13.0,96,-99.99,,,-99.99,,2013-12-11 19:22:00,
2013-12-11 14:52:00,26.0,25.0,-100.00,NE,45,4.0,8.0,96,-99.99,,,-99.99,,2013-12-11 19:52:00,
2013-12-11 15:22:00,25.0,24.0,-100.00,North,0,4.0,9.0,96,-99.99,,,-99.99,,2013-12-11 20:22:00,
2013-12-11 15:52:00,25.0,24.0,-100.00,North,10,4.0,9.0,96,-99.99,,,-99.99,,2013-12-11 20:52:00,
2013-12-11 16:22:00,25.0,24.0,-100.00,North,0,4.0,7.0,97,-99.99,,,-99.99,,2013-12-11 21:22:00,
2013-12-11 16:53:00,24.0,24.0,-100.00,North,0,4.0,7.0,97,-99.99,,,-99.99,,2013-12-11 21:53:00,
2013-12-11 17:23:00,24.0,23.0,-100.00,NNE,15,6.0,11.0,98,-99.99,,,-99.99,,2013-12-11 22:23:00,
2013-12-11 17:53:00,24.0,23.0,-100.00,NNE,25,4.0,11.0,98,-99.99,,,-99.99,,2013-12-11 22:53:00,
2013-12-11 18:22:00,23.0,23.0,-100.00,NNE,20,5.0,9.0,99,-99.99,,,-99.99,,2013-12-11 23:22:00,
2013-12-11 18:52:00,23.0,23.0,-100.00,NE,40,6.0,11.0,99,-99.99,,,-99.99,,2013-12-11 23:52:00,
2013-12-11 19:22:00,23.0,23.0,-100.00,NNE,30,6.0,12.0,99,-99.99,,,-99.99,,2013-12-12 00:22:00,
2013-12-11 19:52:00,22.0,22.0,-100.00,NNE,30,4.0,10.0,99,-99.99,,,-99.99,,2013-12-12 00:52:00,
2013-12-11 20:22:00,22.0,22.0,-100.00,NNE,30,4.0,10.0,99,-99.99,,,-99.99,,2013-12-12 01:22:00,
2013-12-11 20:52:00,22.0,22.0,-100.00,ENE,70,7.0,11.0,99,-99.99,,,-99.99,,2013-12-12 01:52:00,
2013-12-11 21:22:00,21.0,21.0,-100.00,East,90,5.0,13.0,99,-99.99,,,-99.99,,2013-12-12 02:22:00,
2013-12-11 22:22:00,19.0,19.0,-100.00,East,100,9.0,20.0,96,-99.99,,,-99.99,,2013-12-12 03:22:00,
2013-12-11 22:53:00,19.0,17.0,-100.00,ENE,60,11.0,17.0,91,-99.99,,,-99.99,,2013-12-12 03:53:00,
2013-12-11 23:23:00,18.0,15.0,-100.00,East,80,9.0,16.0,87,-99.99,,,-99.99,,2013-12-12 04:23:00,
2013-12-11 23:52:00,17.0,14.0,-100.00,East,85,9.0,18.0,87,-99.99,,,-99.99,,2013-12-12 04:52:00,